Simultaneous Nadir Overpasses (SNOs) Predictions

Prediction of SNOs between GOES-15 and METOP-A Satellite Orbit:

Table of predicted SNOs for the next 14.0 days since TLE Epoch: 5/12/2012
Index Date Time (GOES-15) GOES-15 Lat,Lon METOP-A Lat,Lon Distance(km) Time Diff (sec)
1 05/14/2012 06:27:57 0.15,-135.39 0.30,-134.79 68.39 80
2 05/15/2012 18:49:28 -0.14,-135.42 0.75,-139.34 447.34 80
3 05/16/2012 18:26:10 -0.15,-135.43 -0.40,-134.36 122.53 80
4 05/18/2012 06:47:51 0.14,-135.42 -0.62,-138.96 401.92 80
5 05/19/2012 06:24:32 0.15,-135.43 0.46,-133.96 167.41 80
6 05/20/2012 18:46:04 -0.13,-135.45 0.53,-138.53 349.55 80
7 05/21/2012 18:22:44 -0.15,-135.46 -0.56,-133.53 219.36 80
8 05/23/2012 06:44:26 0.13,-135.44 -0.46,-138.13 306.38 80
9 05/24/2012 06:21:07
